Search your local weather  

 

Hazardous Weather Conditions

Air Quality Alert issued September 22 at 4:10PM MDT

Current Conditions: DENVER, COLORADO

Mostly Cloudy


68.0 F

Last Updated on Sep 22 2020, 8:45 pm MDT
Humidity: 33%
Wind Speed: W 8.1 mph
Barometer 30.17 in
Dewpoint: 37.4 F
Visibility: 10.00 mi
Precip: --
Heat Index: NA
Wind Chill: NA
Current conditions at:

Broomfield / Jeffco, CO (KBJC)

Lat: 39.90085 Lon: -105.10417

Local Radar Image active severe weather and emergency alerts image image weather storm and storm spotter reports image weather observation monitoring service image
Local
Radar
Active
Alerts
Storm Reports Weather
Monitoring

5 Day Forecast for DENVER, COLORADO (80202)

Tuesday

Isolated T-storm

High 84 °F
Tuesday
Night
Isolated T-storm

Low 56 °F
Wednesday

Smoke

High 84 °F
Wednesday
Night
Smoke

Low 53 °F
Thursday

Sunny

High 87 °F
Thursday
Night
Mostly Clear

Low 55 °F
Friday

Partly Sunny

High 90 °F
Friday
Night
Partly Cloudy

Low 54 °F
Saturday

Partly Sunny

High 78 °F

Sign-up For Email & Text Message Weather Alert Notification Services



Advertise Here

Observation History for DENVER, COLORADO


Time Wind
(mph)
Vis
(mi)
Weather Precip (in) Temperature (F) Relative
Humidity
Wind
Chill
(F)
Heat
Index
(F)
Pressure
Air Dwpt altimeter
(in)
sea level
(mb)
8:45 pm MDT W 8.1 10.00 Mostly Cloudy -- 68.0 37.4 33% NA NA 30.17 M
7:45 pm MDT N 0.0 10.00 Mostly Cloudy -- 73.0 35.6 25% NA NA 30.15 M
6:45 pm MDT NW 5.8 10.00 Mostly Cloudy -- 75.0 33.8 22% NA NA 30.14 M
5:58 pm MDT W 12.7 10.00 Mostly Cloudy -- 77.0 30.2 18% NA NA 30.13 M
4:45 pm MDT S 6.9 10.00 Mostly Cloudy -- 84.0 30.2 14% NA 81 30.12 M
3:59 pm MDT SE 5.8 10.00 Mostly Cloudy -- 84.0 30.2 14% NA 81 30.12 M
1:45 pm MDT NW 4.6 10.00 Mostly Cloudy -- 81.0 35.6 20% NA 79 30.15 M
12:45 pm MDT S 4.6 10.00 Mostly Cloudy -- 84.0 32.0 15% NA 81 30.19 M
11:50 am MDT SE 4.6 10.00 Partly Cloudy -- 81.0 35.6 20% NA 79 30.20 M
9:47 am MDT E 4.6 10.00 Partly Cloudy -- 68.0 37.4 33% NA NA 30.22 M
8:55 am MDT N 0.0 10.00 Partly Cloudy -- 64.0 37.4 37% NA NA 30.22 M
7:47 am MDT N 0.0 10.00 Partly Cloudy -- 59.0 37.4 45% NA NA 30.22 M
6:54 am MDT N 0.0 10.00 Fair -- 59.0 33.8 39% NA NA 30.20 M
5:54 am MDT N 0.0 10.00 Fair -- 57.0 33.8 41% NA NA 30.21 M
4:54 am MDT N 0.0 10.00 Fair -- 61.0 32.0 34% NA NA 30.20 M
3:54 am MDT W 3.5 10.00 Fair -- 61.0 32.0 34% NA NA 30.20 M
2:53 am MDT W 5.8 10.00 Fair -- 61.0 33.8 36% 61 NA 30.20 M
1:54 am MDT W 4.6 10.00 Fair -- 61.0 33.8 36% 61 NA 30.20 M
12:53 am MDT W 4.6 10.00 Fair -- 63.0 33.8 34% 64 NA 30.21 M
11:54 pm MDT NW 11.5 10.00 Fair -- 68.0 35.6 30% NA NA 30.21 M
9:45 pm MDT W 6.9 10.00 Partly Cloudy -- 72.0 32.0 23% NA NA 30.19 M
8:55 pm MDT W 9.2 10.00 Partly Cloudy -- 68.0 35.6 30% NA NA 30.20 M

Regional Weather Observation

Erie Municipal Airport, CO (KEIK)

Fair
70.0 F

Boulder Municipal Airport, CO (KBDU)

Fair
72.0 F

Fort Collins/Loveland - Northern Colorado Regional Airport, CO (KFNL)

Fair
67.0 F

Buckley Air Force Base Airport, CO (KBKF)

Mostly Cloudy
63.0 F

Denver, Denver International Airport, CO (KDEN)

Mostly Cloudy
76.0 F

Denver - Centennial Airport, CO (KAPA)

Mostly Cloudy
69.0 F

Advertise Here


Advertise Here